This is the latest recevied weather packets stored in our database for station/object KB3KAV. If no packets are shown the sender has not sent any weather packets the latest 10 day(s).
| Time | Temp. | Humidity | Pressure | Rain* | Wind** | Luminosity | Snow |
|---|---|---|---|---|---|---|---|
| 1777510471 | 10° C | 95% | 1036.8 hPa | 3.05 mm | - | 0 W/m² | - |
| 1777509870 | 10° C | 95% | 1036.8 hPa | 1.78 mm | - | 0 W/m² | - |
| 1777509267 | 10° C | 95% | 1036.8 hPa | 1.27 mm | - | 0 W/m² | - |
| 1777508667 | 10° C | 95% | 1037.1 hPa | 1.78 mm | - | 0 W/m² | - |
| 1777508068 | 10° C | 95% | 1037.1 hPa | 1.27 mm | - | 0 W/m² | - |
| 1777507467 | 10° C | 95% | 1036.9 hPa | 1.78 mm | - | 0 W/m² | - |
| 1777506868 | 10.56° C | 94% | 1037.3 hPa | 4.83 mm | - | 0 W/m² | - |
| 1777506266 | 10.56° C | 94% | 1037.3 hPa | 4.32 mm | - | 0 W/m² | - |
| 1777505664 | 10.56° C | 93% | 1037.4 hPa | 7.87 mm | - | 0 W/m² | - |
| 1777505064 | 10.56° C | 93% | 1037.2 hPa | 7.87 mm | - | 2 W/m² | - |
| 1777504464 | 10.56° C | 92% | 1036.7 hPa | 4.83 mm | - | 3 W/m² | - |
| 1777503861 | 11.11° C | 91% | 1037 hPa | 3.05 mm | - | 3 W/m² | - |
| 1777503261 | 11.11° C | 89% | 1036.9 hPa | 3.05 mm | - | 7 W/m² | - |
| 1777502660 | 11.11° C | 90% | 1037.2 hPa | 1.27 mm | - | 7 W/m² | - |
| 1777502059 | 11.67° C | 89% | 1037.1 hPa | 0 mm | - | 6 W/m² | - |
| 1777501460 | 11.67° C | 87% | 1037.2 hPa | 0 mm | - | 11 W/m² | - |
| 1777500855 | 11.67° C | 87% | 1036.9 hPa | 0 mm | - | 36 W/m² | - |
| 1777500254 | 11.67° C | 90% | 1036.8 hPa | 0 mm | - | 88 W/m² | - |
| 1777499653 | 11.67° C | 91% | 1037.1 hPa | 0 mm | - | 23 W/m² | - |
| 1777499048 | 11.67° C | 91% | 1037.3 hPa | 0 mm | - | 31 W/m² | - |
| 1777498447 | 11.11° C | 92% | 1037.5 hPa | 0 mm | - | 28 W/m² | - |
| 1777497846 | 11.11° C | 92% | 1037.5 hPa | 0 mm | - | 24 W/m² | - |
| 1777497244 | 11.11° C | 93% | 1037.5 hPa | 0 mm | - | 16 W/m² | - |
| 1777496643 | 11.11° C | 93% | 1037.8 hPa | 0 mm | - | 19 W/m² | - |
| 1777496041 | 11.11° C | 93% | 1038 hPa | 0 mm | - | 17 W/m² | - |
* Rain latest hour (hover to see other rain measurements)
** Current wind speed in m/s (hover to see current wind gust speed)